This is the latest recevied weather packets stored in our database for station/object N7WSS. If no packets are shown the sender has not sent any weather packets the latest 10 day(s).
| Time | Temp. | Humidity | Pressure | Rain* | Wind** | Luminosity | Snow |
|---|---|---|---|---|---|---|---|
| 1788034040 | 40° C | 24% | 1012.7 hPa | 0 mm | - | - | - |
| 1788033740 | 40° C | 25% | 1012.9 hPa | 0 mm | - | - | - |
| 1788033439 | 39.44° C | 26% | 1012.9 hPa | 0 mm | - | - | - |
| 1788033134 | 39.44° C | 25% | 1013.2 hPa | 0 mm | - | - | - |
| 1788032829 | 39.44° C | 26% | 1013 hPa | 0 mm | - | - | - |
| 1788032529 | 39.44° C | 26% | 1013.2 hPa | 0 mm | - | - | - |
| 1788032224 | 39.44° C | 27% | 1013.5 hPa | 0 mm | - | - | - |
| 1788031921 | 38.89° C | 27% | 1013.6 hPa | 0 mm | - | - | - |
| 1788031620 | 38.89° C | 28% | 1013.6 hPa | 0 mm | - | - | - |
| 1788031315 | 38.89° C | 27% | 1013.8 hPa | 0 mm | - | - | - |
| 1788031014 | 38.89° C | 28% | 1013.9 hPa | 0 mm | - | - | - |
| 1788030708 | 38.33° C | 28% | 1013.8 hPa | 0 mm | - | - | - |
| 1788030403 | 38.33° C | 28% | 1013.8 hPa | 0 mm | - | - | - |
| 1788030099 | 38.89° C | 29% | 1013.9 hPa | 0 mm | - | - | - |
| 1788029798 | 38.33° C | 29% | 1014 hPa | 0 mm | - | - | - |
| 1788029493 | 38.33° C | 29% | 1014.1 hPa | 0 mm | - | - | - |
| 1788029193 | 38.33° C | 28% | 1014.2 hPa | 0 mm | - | - | - |
| 1788028892 | 38.33° C | 29% | 1014.4 hPa | 0 mm | - | - | - |
| 1788028587 | 38.33° C | 28% | 1014.5 hPa | 0 mm | - | - | - |
| 1788028282 | 37.22° C | 30% | 1014.5 hPa | 0 mm | - | - | - |
| 1788027978 | 37.78° C | 30% | 1014.4 hPa | 0 mm | - | - | - |
| 1788027673 | 37.78° C | 30% | 1014.4 hPa | 0 mm | - | - | - |
| 1788027373 | 37.78° C | 29% | 1014.5 hPa | 0 mm | - | - | - |
| 1788027073 | 37.78° C | 30% | 1014.7 hPa | 0 mm | - | - | - |
| 1788026767 | 38.33° C | 30% | 1014.7 hPa | 0 mm | - | - | - |
* Rain latest hour (hover to see other rain measurements)
** Current wind speed in m/s (hover to see current wind gust speed)